Bandera, Texas, United States (78003)
Lat: 29.73N, Lon: 99.07W
Wx Zone: TXZ187
Local Info
Past Weather Observations for Yesterday

NOTE: This archive is for the closest National Weather Service station to Bandera. Information may differ from the station used for current weather conditions.

Click here for Long-term Archive

Time Weather Temperature Dewpoint Humidity Pressure Winds Precip Visibility
23:56
Overcast
Thunder Storms
63°F / 17°C 63°F / 17°C 100% 30.09 in
(1019 mb)
ENE 9.2 mph
(ENE 15 kph)
0.07 in
(1.78 mm)
2SM
23:51
Overcast
Thunder Storms
63°F / 17°C 63°F / 17°C 100% 30.09 in
(1019 mb)
NE 8.1 mph
(NE 13 kph)
0.90 in
(22.86 mm)
1 1/2SM
23:43
Overcast
Thunder Storms
63°F / 17°C 63°F / 17°C 100% 30.09 in
(1019 mb)
ENE 13.8 mph
(ENE 22 kph)
0.78 in
(19.81 mm)
1SM
23:36
Overcast
Thunder Storms
64°F / 18°C 63°F / 17°C 94% 30.09 in
(1019 mb)
ENE 11.5 mph
(ENE 19 kph)
0.58 in
(14.73 mm)
1SM
23:26
Overcast
Thunder Storms
64°F / 18°C 63°F / 17°C 94% 30.12 in
(1020 mb)
NE 12.7 mph
(NE 20 kph)
0.22 in
(5.59 mm)
1 3/4SM
23:24
Overcast
Thunder Storms
64°F / 18°C 63°F / 17°C 94% 30.09 in
(1019 mb)
NNE 18.4 mph
(NNE 30 kph)
0.15 in
(3.81 mm)
2 1/2SM
23:14
Overcast
Thunder Storms
70°F / 21°C 61°F / 16°C 73% 30.09 in
(1019 mb)
N 31.1 mph
(N 50 kph)
0.00 in
(0.00 mm)
10SM
23:08
Overcast
Thunder Storms
75°F / 24°C 70°F / 21°C 83% 30.09 in
(1019 mb)
NNW 20.7 mph
(NNW 33 kph)
- 10SM
22:51
Mostly Cloudy
77°F / 25°C 72°F / 22°C 83% 30.06 in
(1018 mb)
SE 4.6 mph
(SE 7 kph)
- 10SM
21:51
Clear
79°F / 26°C 72°F / 22°C 79% 29.98 in
(1015 mb)
SE 13.8 mph
(SE 22 kph)
- 10SM
20:51
Clear
79°F / 26°C 72°F / 22°C 79% 29.95 in
(1014 mb)
SSE 17.3 mph
(SSE 28 kph)
- 10SM
19:51
Clear
79°F / 26°C 73°F / 23°C 84% 29.95 in
(1014 mb)
SE 16.1 mph
(SE 26 kph)
- 10SM
18:51
Partly Cloudy
81°F / 27°C 72°F / 22°C 74% 29.92 in
(1013 mb)
SE 16.1 mph
(SE 26 kph)
0.00 in
(0.00 mm)
10SM
17:51
Overcast
Light Rain
82°F / 28°C 73°F / 23°C 74% 29.92 in
(1013 mb)
SE 16.1 mph
(SE 26 kph)
0.00 in
(0.00 mm)
10SM
17:31
Mostly Cloudy
Light Rain
82°F / 28°C 73°F / 23°C 74% 29.92 in
(1013 mb)
SE 18.4 mph
(SE 30 kph)
0.00 in
(0.00 mm)
9SM
17:10
Mostly Cloudy
Thunder Storms
84°F / 29°C 73°F / 23°C 70% 29.92 in
(1013 mb)
SE 18.4 mph
(SE 30 kph)
- 10SM
16:51
Partly Cloudy
84°F / 29°C 73°F / 23°C 70% 29.92 in
(1013 mb)
SE 15 mph
(SE 24 kph)
- 10SM
16:42
Mostly Cloudy
Thunder Storms
84°F / 29°C 73°F / 23°C 70% 29.95 in
(1014 mb)
SE 18.4 mph
(SE 30 kph)
- 10SM
15:51
Partly Cloudy
88°F / 31°C 73°F / 23°C 62% 29.95 in
(1014 mb)
SE 18.4 mph
(SE 30 kph)
- 10SM
14:51
Partly Cloudy
90°F / 32°C 72°F / 22°C 55% 29.95 in
(1014 mb)
SSE 21.9 mph
(SSE 35 kph)
- 10SM
13:51
Partly Cloudy
90°F / 32°C 72°F / 22°C 55% 29.98 in
(1015 mb)
SSE 23 mph
(SSE 37 kph)
0.00 in
(0.00 mm)
10SM
12:51
Partly Cloudy
88°F / 31°C 72°F / 22°C 59% 30.01 in
(1016 mb)
S 16.1 mph
(S 26 kph)
- 10SM
11:51
Partly Cloudy
88°F / 31°C 73°F / 23°C 62% 30.04 in
(1017 mb)
SE 16.1 mph
(SE 26 kph)
- 10SM
11:06
Partly Cloudy
84°F / 29°C 72°F / 22°C 66% 30.06 in
(1018 mb)
S 13.8 mph
(S 22 kph)
- 10SM
10:51
Mostly Cloudy
84°F / 29°C 73°F / 23°C 70% 30.06 in
(1018 mb)
SSE 10.4 mph
(SSE 17 kph)
- 9SM
09:51
Mostly Cloudy
81°F / 27°C 73°F / 23°C 79% 30.06 in
(1018 mb)
SSE 10.4 mph
(SSE 17 kph)
- 8SM
08:51
Overcast
81°F / 27°C 73°F / 23°C 79% 30.06 in
(1018 mb)
S 11.5 mph
(S 19 kph)
0.00 in
(0.00 mm)
7SM
08:38
Overcast
79°F / 26°C 73°F / 23°C 84% 30.06 in
(1018 mb)
S 12.7 mph
(S 20 kph)
0.00 in
(0.00 mm)
7SM
08:31
Overcast
79°F / 26°C 73°F / 23°C 84% 30.06 in
(1018 mb)
SSE 11.5 mph
(SSE 19 kph)
0.00 in
(0.00 mm)
7SM
08:13
Overcast
Fog And Mist
77°F / 25°C 73°F / 23°C 89% 30.09 in
(1019 mb)
S 11.5 mph
(S 19 kph)
0.00 in
(0.00 mm)
6SM
08:03
Overcast
Light Rain
77°F / 25°C 73°F / 23°C 89% 30.09 in
(1019 mb)
SSE 11.5 mph
(SSE 19 kph)
0.00 in
(0.00 mm)
6SM
07:51
Overcast
Fog And Mist
77°F / 25°C 73°F / 23°C 89% 30.06 in
(1018 mb)
S 9.2 mph
(S 15 kph)
- 6SM
07:46
Overcast
Fog And Mist
77°F / 25°C 73°F / 23°C 89% 30.06 in
(1018 mb)
SSE 11.5 mph
(SSE 19 kph)
- 6SM
07:36
Overcast
Fog And Mist
77°F / 25°C 73°F / 23°C 89% 30.06 in
(1018 mb)
SSE 11.5 mph
(SSE 19 kph)
- 6SM
06:55
Overcast
Fog And Mist
75°F / 24°C 73°F / 23°C 94% 30.06 in
(1018 mb)
SE 9.2 mph
(SE 15 kph)
- 6SM
06:51
Overcast
Fog And Mist
75°F / 24°C 73°F / 23°C 94% 30.06 in
(1018 mb)
SE 11.5 mph
(SE 19 kph)
- 6SM
06:48
Overcast
Fog And Mist
75°F / 24°C 73°F / 23°C 94% 30.06 in
(1018 mb)
SE 9.2 mph
(SE 15 kph)
- 6SM
06:33
Overcast
Fog And Mist
75°F / 24°C 73°F / 23°C 94% 30.06 in
(1018 mb)
SE 8.1 mph
(SE 13 kph)
- 6SM
06:16
Overcast
Fog And Mist
75°F / 24°C 73°F / 23°C 94% 30.06 in
(1018 mb)
SE 6.9 mph
(SE 11 kph)
- 6SM
06:11
Overcast
Fog And Mist
75°F / 24°C 73°F / 23°C 94% 30.06 in
(1018 mb)
E 5.8 mph
(E 9 kph)
- 6SM
05:59
Overcast
Fog And Mist
75°F / 24°C 73°F / 23°C 94% 30.06 in
(1018 mb)
ESE 5.8 mph
(ESE 9 kph)
- 6SM
05:51
Overcast
Fog And Mist
75°F / 24°C 73°F / 23°C 94% 30.06 in
(1018 mb)
ESE 5.8 mph
(ESE 9 kph)
- 6SM
05:21
Overcast
75°F / 24°C 73°F / 23°C 94% 30.04 in
(1017 mb)
SE 5.8 mph
(SE 9 kph)
- 7SM
04:51
Overcast
75°F / 24°C 73°F / 23°C 94% 30.04 in
(1017 mb)
SE 8.1 mph
(SE 13 kph)
- 8SM
04:38
Overcast
75°F / 24°C 73°F / 23°C 94% 30.04 in
(1017 mb)
ESE 8.1 mph
(ESE 13 kph)
- 8SM
04:34
Overcast
75°F / 24°C 73°F / 23°C 94% 30.04 in
(1017 mb)
ESE 9.2 mph
(ESE 15 kph)
- 8SM
04:26
Overcast
75°F / 24°C 73°F / 23°C 94% 30.04 in
(1017 mb)
SE 9.2 mph
(SE 15 kph)
- 8SM
03:51
Overcast
75°F / 24°C 73°F / 23°C 94% 30.04 in
(1017 mb)
E 10.4 mph
(E 17 kph)
- 8SM
03:38
Overcast
75°F / 24°C 73°F / 23°C 94% 30.04 in
(1017 mb)
SE 11.5 mph
(SE 19 kph)
- 8SM
02:51
Overcast
75°F / 24°C 72°F / 22°C 89% 30.04 in
(1017 mb)
SE 8.1 mph
(SE 13 kph)
- 9SM
01:51
Overcast
75°F / 24°C 72°F / 22°C 89% 30.04 in
(1017 mb)
SE 10.4 mph
(SE 17 kph)
- 10SM
01:27
Overcast
75°F / 24°C 72°F / 22°C 89% 30.04 in
(1017 mb)
SE 11.5 mph
(SE 19 kph)
- 10SM
00:51
Overcast
75°F / 24°C 72°F / 22°C 89% 30.06 in
(1018 mb)
SE 9.2 mph
(SE 15 kph)
- 10SM
00:35
Overcast
75°F / 24°C 72°F / 22°C 89% 30.06 in
(1018 mb)
SE 10.4 mph
(SE 17 kph)
- 10SM
Time Weather Temperature Dewpoint Humidity Pressure Winds Precip Visibility


Weather for websites

WeatherForYou.com, LLC is not responsible for any damages or problems caused by this service. Current weather conditions are obtained from the closest station including government and personal stations which may have varying degrees of accuracy. Weather forecasts are derived from the NOAA NDFD. Like all things, this site belongs to Jesus Christ... He just trusts us to maintain it. If you have any questions or comments email webmaster@weatherforyou.com

Copyright © 2015, WeatherForYou.com LLC. All rights reserved.